Temperature
29 29 29 27 27 27 28 29 29 28 27 26 26 26 25 25 25 25 24 24 23 22 21 20 20 20 19 19 18 18 18 17 17 17 17 17 17 17 16 16 16 16 16 16
27 28 28 27 27 27 27 29 29 29 28 27 26 25 25 25 24 24 23 22 22 21 20 20 19 19 19 19 18 18 18 17 17 17 17 17 16 16 16 16 16 16 16 16
26 27 27 26 27 28 29 30 30 28 28 27 26 25 24 24 24 23 22 22 21 20 19 19 19 19 18 18 18 18 17 17 17 17 16 16 16 16 16 16 16 16 15 15
25 25 24 27 29 29 29 29 29 28 28 27 25 23 23 23 22 22 21 20 20 19 19 19 18 18 18 18 17 17 17 17 16 16 16 16 16 15 15 15 15 15 15 15
24 24 25 27 27 27 27 27 28 27 27 26 24 23 22 21 20 19 19 19 19 18 18 18 18 17 17 17 17 16 16 16 16 16 16 15 15 15 15 14 14 14 14 14
23 23 23 25 26 26 26 25 25 25 25 24 24 23 21 19 19 18 18 18 18 17 17 17 17 16 16 16 16 15 15 15 15 15 15 14 14 14 14 14 13 13 13 13
22 23 24 24 25 26 24 23 23 23 23 23 22 21 19 18 17 17 17 17 17 16 16 16 16 16 15 15 15 14 14 14 14 14 14 14 13 13 13 13 13 12 12 12
22 22 22 23 23 22 21 22 22 22 22 20 19 18 17 16 15 15 15 16 15 15 15 15 15 15 14 14 14 14 14 14 13 13 13 13 13 13 13 12 12 12 11 11
22 21 21 21 21 20 20 20 20 20 20 18 17 17 15 15 14 14 14 14 14 14 14 14 14 14 14 13 13 13 13 13 13 12 12 12 12 12 12 12 11 11 11 10
21 21 21 20 19 19 19 19 19 19 18 17 16 15 14 14 13 13 13 13 13 13 13 13 13 13 13 12 12 13 12 12 12 12 12 11 11 11 11 11 11 10 10 10
20 20 19 19 18 17 17 17 17 17 17 16 15 14 14 13 13 12 12 12 12 12 12 12 12 12 12 12 12 12 12 12 11 11 11 11 11 11 11 10 10 10 10 9
18 18 17 16 15 16 16 16 16 15 15 15 14 13 13 12 12 11 11 11 11 11 11 11 11 11 11 11 12 12 12 12 11 11 11 11 11 10 10 10 9 9 9 9
16 15 15 15 14 14 14 14 14 14 13 13 13 12 12 11 11 11 11 11 11 11 11 11 11 11 11 11 11 11 11 11 11 11 11 10 10 10 9 9 8 8 8 7
15 14 14 13 13 13 13 13 13 12 12 12 12 11 11 11 11 10 10 10 10 10 10 10 10 10 10 11 11 11 11 11 11 11 11 10 10 10 9 9 8 8 7 7
14 13 13 12 12 12 12 12 11 11 11 10 10 10 10 10 10 10 10 10 10 10 10 10 10 10 10 10 10 11 11 11 11 11 11 10 10 10 9 9 8 8 7 6
13 12 12 11 11 11 11 10 10 10 10 10 10 10 10 10 9 9 10 10 10 10 10 10 9 9 10 10 10 10 10 10 10 10 10 10 10 10 9 9 8 7 7 6
12 12 11 11 11 10 10 10 10 10 9 9 9 9 9 9 9 9 9 9 9 9 9 9 9 9 9 10 10 10 10 10 10 10 10 9 9 9 9 8 8 7 7 6
13 12 12 11 11 10 10 10 10 10 9 9 9 9 9 9 9 9 9 9 9 9 9 9 9 9 9 10 10 10 10 10 10 9 9 9 9 8 8 8 7 7 6 6
12 12 11 11 11 10 10 10 10 10 10 10 10 10 9 9 9 9 9 9 9 9 9 9 9 9 9 9 10 10 10 10 9 9 8 8 8 8 8 7 7 6 6 6
12 11 11 11 11 10 10 10 10 10 10 10 10 10 10 9 9 9 9 9 9 9 9 9 9 9 9 9 9 9 9 9 9 9 8 8 8 7 7 7 6 6 5 5
12 11 11 11 11 11 10 10 10 10 10 10 10 10 10 10 9 9 9 9 9 9 9 9 9 8 9 9 9 9 9 9 8 8 8 8 7 7 6 6 6 5 5 4
12 11 11 11 11 11 11 11 10 10 10 10 10 10 10 10 9 9 9 9 9 9 9 8 8 8 8 9 9 9 9 8 8 8 7 7 7 6 6 5 5 5 4 4
12 12 11 11 11 11 11 11 11 10 10 10 10 10 10 10 10 9 9 9 8 8 8 8 8 8 8 8 8 8 8 8 8 7 7 7 6 6 5 5 5 4 4 3
11 11 11 11 11 11 11 11 11 11 10 10 10 10 10 10 9 9 9 9 8 8 8 8 8 7 7 8 8 7 7 7 7 7 6 6 6 5 5 5 4 4 3 3
11 11 11 11 11 11 11 11 11 10 10 10 10 10 10 10 9 9 8 8 8 8 8 7 7 7 7 7 7 7 6 6 6 6 6 5 5 5 5 4 4 3 3 3
11 11 11 11 11 11 11 11 11 11 11 10 10 10 9 9 9 8 8 8 7 7 7 7 7 7 7 7 6 6 6 6 6 5 5 5 5 4 4 4 3 3 3 2
11 11 11 11 11 11 11 11 11 10 10 10 10 9 9 9 8 8 8 7 7 7 7 7 7 7 7 6 6 6 6 6 6 5 5 5 4 4 4 3 3 3 3 2
Wind_Speed
18 14 8 8 10 13 15 15 14 9 6 4 4 4 4 6 7 8 10 10 9 9 8 7 6 6 6 7 8 8 9 8 8 7 6 6 6 6 6 5 5 4 4 2
16 15 10 10 12 15 18 17 14 11 9 4 6 6 6 6 8 8 9 10 9 9 9 7 6 6 6 6 7 7 8 8 7 7 7 6 6 6 5 5 4 4 4 4
15 15 14 15 15 17 16 13 12 11 6 3 4 5 6 7 8 8 9 10 9 9 8 7 7 6 7 7 7 7 6 6 7 7 6 5 6 6 5 5 5 5 6 7
13 15 17 12 10 12 12 9 7 5 2 1 6 6 6 5 5 6 7 9 9 9 8 8 8 8 8 8 8 8 7 6 6 7 7 7 7 7 7 7 7 8 8 8
11 15 15 13 9 10 10 8 6 5 4 3 7 7 6 8 8 7 8 9 9 9 9 9 9 10 11 11 10 10 9 8 8 8 9 9 10 9 8 9 9 9 9 9
11 12 12 6 5 8 8 6 7 8 6 2 3 3 4 8 10 10 11 10 9 10 12 12 11 11 12 11 11 11 11 11 11 10 10 11 11 10 9 9 9 9 10 10
13 13 9 5 7 8 6 3 9 9 7 5 2 4 8 11 12 13 13 11 11 12 12 12 12 12 13 12 12 11 12 12 12 12 12 11 10 9 10 10 10 9 10 9
9 11 6 8 6 4 5 8 8 8 6 7 9 12 13 13 13 13 12 12 13 13 13 12 12 14 14 12 11 11 12 13 12 10 10 11 9 9 9 8 9 8 8 8
3 2 4 7 6 7 7 7 7 5 4 7 8 12 14 13 13 12 12 12 12 14 14 13 12 12 14 11 11 12 13 12 12 12 10 9 9 8 7 5 6 6 6 7
5 2 5 7 7 9 9 8 7 3 3 6 9 12 15 13 13 13 13 12 13 14 15 13 12 13 13 12 11 12 13 11 10 11 11 11 9 9 9 8 7 7 7 7
6 6 7 6 8 9 7 6 4 3 5 7 11 15 15 15 14 13 13 12 13 14 14 14 12 12 12 11 10 11 11 11 11 12 12 11 11 10 10 10 9 8 8 7
3 4 5 6 8 8 5 3 4 6 7 8 14 17 17 16 14 13 13 12 13 14 14 13 13 12 10 9 8 8 8 8 9 9 9 10 10 11 16 12 14 16 13 10
3 5 5 5 6 6 5 5 7 9 11 12 14 16 18 17 14 14 14 13 14 14 14 13 12 11 10 9 8 8 8 7 7 8 8 8 8 9 8 8 11 11 11 10
3 3 3 4 5 7 8 10 12 13 13 14 16 17 17 17 16 15 14 13 13 14 13 13 12 11 9 9 8 8 8 8 6 5 5 6 5 6 7 7 6 5 3 3
4 4 5 7 9 10 10 12 15 15 16 16 15 16 17 17 16 15 13 13 13 13 12 12 11 9 7 7 8 8 7 6 5 4 5 5 4 5 5 5 6 5 5 2
7 8 10 11 12 12 13 14 15 16 16 16 16 17 17 16 14 12 11 11 12 12 11 10 9 8 6 6 6 7 6 7 5 4 5 5 5 5 5 4 5 5 6 5
9 10 11 12 12 13 13 14 15 16 16 16 17 16 15 15 14 12 11 11 11 10 9 8 7 6 6 4 3 5 6 5 3 5 6 6 5 6 6 5 6 5 7 6
11 12 12 13 13 14 15 16 15 16 15 16 16 14 13 13 12 11 10 11 11 10 8 7 6 6 6 5 4 3 4 4 5 7 7 6 5 5 6 5 5 6 5 4
14 15 15 16 16 16 16 15 15 14 14 14 14 13 12 11 10 10 10 10 10 9 8 7 5 5 6 7 5 1 4 6 6 6 5 4 3 5 6 5 5 5 5 5
15 16 17 16 16 16 15 14 14 12 12 12 12 12 11 10 10 10 9 8 7 6 6 5 4 5 5 5 5 3 5 5 5 5 4 4 4 5 5 5 6 5 5 5
16 16 16 16 16 15 14 13 13 13 12 11 11 11 10 10 9 9 9 8 7 6 6 4 4 5 5 4 3 3 5 5 5 5 4 4 5 5 5 6 6 6 6 5
14 15 15 15 15 13 12 11 12 12 11 10 10 10 9 8 8 8 8 7 7 4 3 5 6 7 7 5 2 5 5 5 5 5 4 5 5 5 5 4 4 5 5 5
13 14 14 13 13 12 11 11 11 10 10 10 10 8 7 6 6 7 7 6 6 4 4 7 7 7 7 3 3 5 5 4 4 4 4 5 5 4 4 4 4 4 4 4
12 12 11 11 11 11 10 10 9 9 9 9 9 8 7 6 5 6 7 8 8 7 6 7 6 5 4 1 3 5 5 4 4 4 4 4 4 4 4 4 4 4 4 4
12 11 11 10 9 9 9 9 10 9 8 7 8 7 6 6 6 7 7 9 9 7 7 5 2 2 1 2 4 5 5 5 4 3 4 4 4 4 4 4 3 3 3 3
9 9 8 8 7 6 6 7 6 6 6 6 6 6 6 6 7 7 6 7 8 6 6 5 4 2 2 3 4 4 5 4 3 3 4 3 4 4 4 3 3 3 3 3
10 9 7 8 7 6 6 6 6 6 6 6 6 5 5 6 5 5 6 6 6 5 5 5 4 3 3 4 4 3 3 3 3 3 3 3 2 2 2 2 2 3 3 3
Wind_Direction
265 266 254 256 270 275 270 266 271 272 261 197 179 183 163 153 150 144 141 141 136 134 130 130 133 139 141 153 159 163 162 168 174 172 164 159 159 157 162 170 177 167 157 154
270 267 262 259 250 255 260 262 268 271 273 208 171 174 160 160 161 157 149 141 136 132 130 130 132 135 135 138 145 152 158 165 161 159 158 157 157 159 155 149 142 129 123 108
266 269 268 255 252 253 255 261 270 272 275 175 165 150 151 162 166 159 145 137 130 124 124 125 125 126 128 126 127 132 137 141 143 146 144 143 146 133 129 126 115 101 90 84
264 269 264 271 287 280 273 274 299 300 302 154 137 125 109 107 119 124 130 126 122 122 123 125 123 121 116 114 113 112 107 108 115 116 117 113 107 104 99 93 91 85 80 76
258 259 261 267 280 293 289 294 338 337 343 14 112 123 104 95 102 113 110 111 113 116 118 113 111 109 105 100 98 94 90 88 95 106 108 104 99 94 90 89 86 85 82 77
250 259 264 284 327 327 300 267 12 9 1 64 155 186 129 109 108 105 100 98 107 109 107 101 99 101 100 96 92 88 87 85 84 89 96 97 97 97 96 95 94 90 82 75
247 254 258 318 326 309 284 342 12 11 9 14 42 76 105 101 98 95 95 97 98 100 99 99 99 97 94 91 89 88 88 88 86 88 90 91 92 98 99 98 96 94 92 85
243 248 247 15 360 356 3 353 355 0 20 55 82 100 106 104 101 98 98 98 97 96 96 96 98 99 96 93 94 93 91 89 89 88 90 93 93 93 98 107 109 105 103 98
280 286 17 11 1 353 349 338 337 356 49 94 102 113 112 109 106 100 97 95 95 96 96 92 91 96 99 98 98 96 92 89 86 83 80 84 90 93 96 97 100 101 99 94
300 292 345 344 347 347 346 337 333 352 100 114 122 124 119 114 108 104 100 98 97 94 95 94 92 93 94 95 95 96 95 94 91 86 77 64 61 59 57 53 63 71 67 72
274 301 320 339 351 344 343 348 355 54 106 120 126 124 121 116 111 107 103 100 98 97 96 94 92 91 93 95 97 100 100 98 93 87 85 76 67 57 66 56 61 69 63 59
306 342 328 327 339 344 353 29 68 94 97 108 122 121 118 113 110 108 105 104 103 101 99 97 93 90 88 90 93 99 106 108 109 108 106 104 98 80 56 65 67 72 73 79
12 354 348 343 7 27 44 65 87 101 106 109 115 117 116 113 109 106 102 101 100 100 98 94 91 87 82 78 75 77 82 84 97 107 116 121 122 118 109 79 64 67 75 81
35 19 29 38 56 65 83 92 94 96 96 103 108 110 110 108 105 101 100 100 100 99 96 93 89 84 80 76 70 70 79 78 80 91 98 100 110 122 129 135 130 117 109 122
54 71 90 89 84 82 90 96 97 97 99 101 105 106 106 104 101 99 100 100 98 94 91 90 88 83 79 80 76 70 70 67 61 74 87 91 97 101 98 99 109 119 127 125
95 97 100 98 95 98 101 101 102 104 105 105 103 102 102 103 103 104 104 102 98 94 90 89 87 84 81 82 86 89 78 61 42 60 79 78 72 76 78 78 85 90 86 58
116 115 116 111 106 105 103 103 105 107 108 108 108 109 110 110 107 104 100 98 95 93 91 91 90 86 78 65 63 101 103 91 54 55 61 53 58 64 64 59 60 70 80 69
122 119 121 121 119 114 110 109 110 111 113 115 116 115 114 113 113 111 111 112 108 104 100 93 84 80 72 49 33 69 98 98 76 71 69 50 42 60 65 64 61 65 88 96
121 119 118 114 114 112 111 112 114 116 118 119 119 117 115 114 114 116 116 114 110 103 94 86 76 86 79 49 12 53 82 91 90 84 85 86 61 59 58 56 54 52 49 47
118 118 118 118 117 118 120 122 123 122 121 121 120 119 120 122 122 118 110 101 96 101 106 100 101 88 82 52 355 55 67 75 84 88 82 74 70 70 59 53 53 50 45 38
119 121 121 121 121 122 124 126 126 124 124 123 122 121 119 118 119 119 117 109 101 96 104 103 84 75 59 19 323 66 77 73 77 72 68 68 65 63 57 48 45 44 42 34
120 122 122 120 121 120 123 125 124 125 125 127 126 123 122 123 119 111 106 108 113 100 113 105 84 63 30 345 31 72 76 78 81 82 75 71 68 61 56 51 51 52 43 30
115 117 118 120 122 124 126 127 128 128 128 126 125 125 123 117 120 119 115 113 115 101 86 85 82 61 9 344 63 73 74 73 73 77 78 75 74 69 58 50 55 55 47 25
107 109 112 115 117 117 117 118 118 120 123 125 126 125 123 118 110 108 109 104 97 104 99 97 82 48 340 24 76 77 73 71 71 69 75 77 77 72 66 56 49 47 45 32
112 113 114 119 120 120 123 125 124 126 128 123 122 121 116 113 112 112 113 117 124 119 119 119 101 344 321 77 82 84 80 66 58 47 74 71 63 69 68 61 48 41 39 27
119 122 120 114 111 117 123 124 126 126 121 117 115 113 108 107 113 119 126 136 133 130 131 141 157 194 149 104 99 106 117 126 126 109 75 71 69 63 59 47 36 23 30 31
118 114 111 111 111 109 108 106 104 103 104 110 113 112 112 116 121 127 132 138 145 151 150 159 161 155 129 116 110 109 107 107 106 106 105 91 77 71 65 44 25 19 7 14
Height
1427 1424 1426 1433 1434 1433 1433 1431 1434 1433 1435 1435 1434 1436 1439 1441 1445 1448 1451 1455 1459 1463 1466 1470 1473 1476 1478 1481 1484 1486 1489 1491 1494 1496 1499 1502 1505 1508 1511 1515 1517 1519 1521 1523
1432 1425 1427 1432 1432 1433 1431 1425 1424 1426 1430 1427 1431 1435 1439 1441 1445 1449 1451 1455 1459 1462 1465 1469 1472 1475 1478 1481 1483 1486 1488 1490 1493 1495 1498 1500 1503 1506 1510 1512 1515 1517 1519 1521
1441 1429 1428 1437 1428 1427 1424 1418 1420 1426 1426 1425 1430 1434 1439 1442 1445 1447 1451 1455 1459 1462 1465 1468 1472 1475 1478 1480 1483 1485 1487 1490 1492 1495 1497 1500 1502 1505 1508 1510 1513 1515 1517 1518
1441 1440 1451 1431 1417 1416 1415 1416 1417 1419 1423 1426 1430 1436 1440 1442 1446 1449 1452 1455 1458 1462 1465 1469 1472 1475 1478 1480 1482 1485 1487 1489 1491 1494 1496 1499 1502 1504 1507 1510 1512 1513 1515 1517
1442 1443 1438 1425 1419 1419 1421 1422 1420 1423 1425 1428 1432 1437 1442 1444 1447 1450 1453 1455 1458 1462 1466 1469 1473 1475 1478 1480 1483 1485 1487 1489 1491 1494 1496 1498 1501 1503 1506 1509 1510 1512 1514 1516
1442 1448 1448 1432 1422 1421 1423 1431 1428 1427 1429 1431 1433 1437 1444 1447 1447 1450 1453 1456 1460 1463 1466 1470 1473 1476 1479 1482 1484 1486 1489 1490 1492 1494 1496 1498 1501 1503 1506 1508 1510 1512 1514 1515
1443 1444 1437 1430 1426 1426 1438 1441 1434 1432 1433 1434 1435 1438 1445 1447 1449 1452 1455 1459 1462 1465 1468 1471 1475 1478 1480 1483 1486 1488 1491 1492 1494 1496 1498 1500 1502 1504 1507 1510 1512 1513 1514 1516
1440 1445 1445 1435 1431 1437 1441 1437 1436 1436 1436 1438 1440 1442 1446 1450 1452 1455 1458 1462 1465 1467 1470 1474 1477 1480 1482 1486 1488 1491 1493 1495 1497 1499 1501 1503 1505 1507 1509 1511 1513 1515 1516 1517
1438 1441 1438 1438 1439 1440 1439 1439 1439 1439 1439 1441 1444 1445 1449 1453 1456 1459 1462 1465 1468 1470 1474 1477 1480 1483 1485 1489 1492 1494 1496 1498 1500 1502 1504 1507 1509 1510 1512 1514 1516 1517 1519 1519
1437 1436 1438 1439 1440 1440 1440 1440 1439 1440 1441 1442 1445 1447 1451 1456 1459 1462 1465 1469 1471 1474 1477 1481 1484 1486 1489 1493 1495 1497 1499 1501 1504 1506 1508 1510 1512 1513 1514 1516 1518 1519 1520 1521
1439 1438 1439 1439 1440 1440 1439 1439 1439 1439 1441 1443 1446 1449 1453 1458 1462 1466 1469 1473 1475 1478 1481 1485 1488 1491 1494 1496 1499 1501 1503 1505 1507 1509 1511 1513 1515 1516 1517 1518 1519 1520 1521 1521
1441 1442 1443 1443 1442 1440 1439 1439 1440 1441 1443 1446 1448 1451 1456 1461 1465 1469 1473 1477 1480 1483 1486 1489 1492 1495 1498 1501 1503 1505 1507 1509 1511 1513 1514 1516 1517 1518 1520 1521 1522 1522 1522 1522
1444 1443 1443 1443 1442 1441 1440 1440 1441 1443 1445 1448 1451 1455 1459 1464 1469 1473 1477 1481 1484 1487 1490 1493 1496 1499 1502 1504 1506 1508 1510 1512 1514 1516 1517 1518 1519 1520 1522 1523 1524 1524 1524 1524
1444 1444 1444 1444 1444 1443 1442 1442 1444 1446 1449 1452 1456 1460 1464 1468 1473 1477 1482 1486 1489 1492 1495 1498 1501 1504 1506 1508 1510 1511 1513 1515 1517 1519 1520 1522 1523 1523 1524 1524 1525 1525 1525 1525
1444 1444 1445 1446 1446 1446 1446 1446 1448 1451 1454 1459 1462 1465 1469 1473 1478 1483 1487 1491 1494 1497 1499 1502 1505 1507 1510 1512 1513 1514 1516 1517 1519 1521 1522 1523 1524 1525 1526 1527 1527 1527 1527 1527
1445 1446 1447 1448 1449 1450 1451 1452 1454 1458 1461 1465 1468 1471 1475 1479 1484 1489 1493 1496 1498 1501 1504 1506 1509 1511 1513 1515 1516 1517 1518 1520 1521 1523 1524 1525 1526 1527 1527 1528 1529 1529 1528 1528
1446 1448 1450 1452 1453 1455 1457 1459 1461 1464 1467 1471 1474 1478 1482 1486 1490 1494 1497 1500 1503 1505 1508 1510 1513 1514 1516 1517 1518 1520 1521 1522 1523 1525 1526 1527 1527 1528 1529 1529 1530 1530 1529 1529
1449 1451 1453 1455 1457 1460 1462 1465 1468 1471 1474 1477 1481 1485 1488 1492 1495 1499 1501 1504 1507 1509 1512 1514 1516 1517 1518 1519 1520 1522 1523 1524 1526 1526 1527 1528 1529 1529 1530 1530 1531 1531 1530 1530
1452 1455 1458 1460 1462 1465 1468 1471 1474 1478 1481 1484 1487 1490 1494 1497 1500 1503 1506 1508 1510 1512 1515 1516 1518 1520 1520 1521 1522 1524 1525 1525 1527 1528 1528 1529 1530 1531 1531 1531 1531 1531 1531 1531
1456 1459 1462 1465 1468 1470 1474 1477 1480 1483 1486 1489 1492 1495 1499 1502 1504 1507 1509 1511 1513 1515 1517 1519 1520 1522 1523 1523 1524 1525 1526 1527 1528 1529 1530 1531 1531 1531 1532 1532 1532 1532 1532 1531
1460 1464 1467 1470 1473 1477 1480 1482 1485 1488 1491 1494 1497 1500 1503 1505 1508 1510 1512 1514 1516 1518 1519 1521 1522 1523 1524 1525 1525 1527 1528 1528 1529 1530 1531 1531 1532 1532 1532 1532 1532 1532 1532 1531
1465 1468 1472 1475 1478 1481 1485 1488 1490 1493 1496 1499 1501 1504 1506 1509 1511 1513 1515 1517 1518 1520 1521 1523 1523 1524 1525 1526 1527 1528 1528 1529 1530 1531 1531 1531 1532 1532 1532 1533 1532 1532 1532 1531
1470 1473 1477 1480 1483 1486 1489 1492 1495 1497 1500 1502 1505 1507 1509 1511 1513 1515 1517 1519 1520 1521 1522 1522 1523 1524 1525 1526 1527 1528 1529 1530 1530 1531 1531 1532 1532 1532 1533 1533 1533 1532 1532 1531
1475 1478 1482 1485 1487 1490 1493 1496 1498 1501 1503 1505 1508 1510 1512 1513 1515 1516 1518 1519 1520 1521 1522 1522 1523 1524 1525 1527 1528 1528 1529 1530 1531 1531 1532 1532 1532 1533 1533 1533 1533 1532 1532 1531
1480 1483 1486 1489 1491 1494 1497 1499 1501 1504 1506 1508 1510 1512 1513 1515 1516 1518 1518 1519 1521 1522 1522 1523 1524 1525 1526 1528 1528 1529 1529 1530 1531 1531 1532 1532 1533 1532 1532 1532 1532 1532 1531 1530
1484 1487 1490 1492 1495 1497 1499 1502 1504 1506 1508 1510 1512 1513 1515 1516 1517 1518 1519 1520 1521 1522 1523 1524 1525 1526 1527 1528 1528 1529 1530 1530 1531 1532 1532 1532 1532 1532 1532 1532 1532 1531 1531 1529
1489 1491 1493 1496 1498 1500 1502 1504 1506 1507 1509 1511 1512 1514 1515 1517 1518 1519 1520 1521 1522 1523 1524 1525 1526 1527 1528 1528 1529 1529 1530 1531 1531 1532 1532 1532 1532 1532 1532 1531 1531 1530 1530 1528